Weather History for KGRB - May, 2013

Change the Weather History Date:

Monday, May 27, 2013

  Actual Average Record
Temperature  
Mean Temperature 54 °F 59 °F  
Max Temperature 62 °F 69 °F 89 °F (1978)
Min Temperature 45 °F 48 °F 31 °F (1961)
Degree Days  
Heating Degree Days 11 7  
Month to date heating degree days 285 299  
Since 1 July heating degree days 7632 7836  
Cooling Degree Days 0 1  
Month to date cooling degree days 15 10  
Year to date cooling degree days 20 12  
Growing Degree Days 4 (Base 50)    
Moisture  
Dew Point 43 °F    
Average Humidity 64    
Maximum Humidity 77    
Minimum Humidity 51    
Precipitation  
Precipitation 0.01 in 0.11 in 2.22 in (1973)
Month to date precipitation 3.24 2.47  
Year to date precipitation 13.29 9.19  
Snow  
Snow 0.00 in 0.00 in T in (1907)
Month to date snowfall 0.0 0.2  
Since 1 July snowfall 74.2 51.4  
Snow Depth 0.00 in    
Sea Level Pressure  
Sea Level Pressure 30.08 in    
Wind  
Wind Speed 9 mph (ESE)    
Max Wind Speed 18 mph    
Max Gust Speed 23 mph    
Visibility 10 miles    
Events Rain    
T = Trace of Precipitation, MM = Missing Value Source: NWS Daily Summary

Daily Weather History Graph

Daily Weather History Graph

Search for Another Location

Airport or City:

Trip Planner

Search our weather history database for the weather conditions in past years. The results will help you decide how hot, cold, wet, or windy it might be!

Date:

Astronomy

May. 27, 2013 Rise Set
Actual Time 5:13 AM CDT 8:26 PM CDT
Civil Twilight 4:38 AM CDT 9:01 PM CDT
Nautical Twilight 3:53 AM CDT 9:47 PM CDT
Astronomical Twilight 2:57 AM CDT 10:43 PM CDT
Moon 11:02 PM CDT (5/27) 7:52 AM CDT (5/27)
Length of Visible Light 16h 22m
Length of Day
15h 12m
Waning Gibbous, 91% of the Moon is Illuminated
May 27
Waning Gibbous
May 31
Last Quarter
Jun 8
New
Jun 16
First Quarter
Jun 23
Full

Hourly Weather History & Observations

Time (CDT) Temp. Dew Point Humidity Pressure Visibility Wind Dir Wind Speed Gust Speed Precip Events Conditions
12:53 AM 48.0 °F 35.1 °F 61% 30.21 in - Calm Calm - N/A   Clear
1:53 AM 46.0 °F 37.9 °F 73% 30.18 in - Calm Calm - N/A   Clear
2:53 AM 46.9 °F 34.0 °F 61% 30.17 in - ENE 3.5 mph - N/A   Clear
3:53 AM 48.0 °F 35.1 °F 61% 30.15 in - East 6.9 mph - N/A   Clear
4:53 AM 48.0 °F 36.0 °F 63% 30.16 in - East 8.1 mph - N/A   Clear
5:53 AM 48.9 °F 37.0 °F 64% 30.14 in - East 8.1 mph - N/A   Clear
6:53 AM 50.0 °F 37.9 °F 63% 30.14 in 10.0 mi East 9.2 mph - N/A   Clear
7:53 AM 55.0 °F 39.9 °F 57% 30.15 in - ESE 6.9 mph - N/A   Partly Cloudy
8:53 AM 59.0 °F 41.0 °F 51% 30.14 in 10.0 mi SE 12.7 mph - N/A   Scattered Clouds
9:53 AM 60.1 °F 44.1 °F 55% 30.12 in 10.0 mi SSE 15.0 mph - N/A   Overcast
10:53 AM 59.0 °F 48.0 °F 67% 30.10 in 10.0 mi SSE 11.5 mph - N/A   Overcast
11:53 AM 59.0 °F 48.9 °F 69% 30.11 in 10.0 mi ESE 12.7 mph - N/A   Overcast
12:53 PM 60.1 °F 46.0 °F 60% 30.12 in 10.0 mi ESE 15.0 mph - N/A   Overcast
1:53 PM 60.1 °F 46.0 °F 60% 30.10 in 10.0 mi SE 18.4 mph 21.9 mph 0.00 in   Overcast
2:53 PM 59.0 °F 44.1 °F 58% 30.07 in 10.0 mi SE 11.5 mph - 0.00 in   Overcast
3:53 PM 61.0 °F 43.0 °F 52% 30.03 in 10.0 mi SE 13.8 mph 23.0 mph N/A   Overcast
4:53 PM 61.0 °F 43.0 °F 52% 30.02 in 10.0 mi SE 12.7 mph - N/A   Overcast
5:53 PM 59.0 °F 43.0 °F 55% 30.00 in 10.0 mi ESE 12.7 mph - N/A   Overcast
6:53 PM 59.0 °F 44.1 °F 58% 30.00 in 10.0 mi SE 6.9 mph - N/A   Overcast
7:53 PM 57.9 °F 44.1 °F 60% 30.00 in 10.0 mi ESE 8.1 mph - N/A   Overcast
8:53 PM 55.9 °F 46.0 °F 69% 29.98 in 10.0 mi SE 4.6 mph - N/A   Overcast
9:53 PM 54.0 °F 46.9 °F 77% 29.96 in 10.0 mi East 8.1 mph - 0.00 in Rain Light Rain
10:53 PM 53.1 °F 46.9 °F 80% 29.95 in 10.0 mi East 5.8 mph - 0.01 in Rain Light Rain
11:45 PM 53.1 °F 48.0 °F 83% 29.95 in 10.0 mi South 4.6 mph - 0.00 in   Overcast
11:53 PM 53.1 °F 48.0 °F 83% 29.96 in 10.0 mi SSE 4.6 mph - 0.00 in   Overcast